VA7WMK Weather Reports


Display with metric or nautical units.
time (UTC)temp
F
wind
direction
speed
MPH
gust
MPH
rain 1hr
in
rain 24hr
in
rain mn
in
humidity
%
barometer
mb
20260506051005 56 68 2.0 3.0 0.00 0.00 0.00 67 1012.6
20260506050513 56 68 2.0 5.0 0.00 0.00 0.00 67 1012.6
20260506045004 56 70 2.0 5.0 0.00 0.00 0.00 67 1012.5
20260506043507 57 66 2.0 6.0 0.00 0.00 0.00 67 1012.4
20260506043015 57 65 2.0 6.0 0.00 0.00 0.00 67 1012.4
20260506042010 57 69 2.0 6.0 0.00 0.00 0.00 67 1012.3
20260506041015 57 70 1.0 6.0 0.00 0.00 0.00 67 1012.2
20260506035506 58 58 2.0 6.0 0.00 0.00 0.00 65 1012.0
20260506034514 59 70 2.0 6.0 0.00 0.00 0.00 65 1011.9
20260506034010 59 75 2.0 6.0 0.00 0.00 0.00 65 1011.9
20260506032014 60 63 1.0 3.0 0.00 0.00 0.00 63 1012.0
20260506031508 60 56 2.0 5.0 0.00 0.00 0.00 62 1012.0
20260506031013 60 61 2.0 6.0 0.00 0.00 0.00 62 1011.9
20260506030508 60 69 2.0 6.0 0.00 0.00 0.00 62 1011.9
20260506025523 61 72 2.0 6.0 0.00 0.00 0.00 61 1011.8
20260506024514 61 69 2.0 8.0 0.00 0.00 0.00 61 1011.8
20260506024016 61 73 2.0 8.0 0.00 0.00 0.00 61 1011.8
20260506023510 62 77 2.0 8.0 0.00 0.00 0.00 61 1011.8
20260506022505 62 77 2.0 7.0 0.00 0.00 0.00 61 1011.8
20260506021006 63 75 2.0 6.0 0.00 0.00 0.00 60 1011.7
20260506020514 63 71 2.0 5.0 0.00 0.00 0.00 60 1011.7
20260506020010 63 77 2.0 5.0 0.00 0.00 0.00 60 1011.7
20260506015004 63 75 2.0 5.0 0.00 0.00 0.00 59 1011.7
20260506014513 64 74 2.0 5.0 0.00 0.00 0.00 59 1011.7
20260506013509 64 70 2.0 5.0 0.00 0.00 0.00 58 1011.8
20260506013005 64 68 2.0 7.0 0.00 0.00 0.00 58 1011.9
20260506012513 65 69 2.0 7.0 0.00 0.00 0.00 58 1011.9
20260506011510 65 72 2.0 7.0 0.00 0.00 0.00 57 1011.9
20260506010014 66 76 2.0 6.0 0.00 0.00 0.00 56 1012.0
20260506004506 65 65 2.0 3.0 0.00 0.00 0.00 57 1012.1
20260506004014 66 65 2.0 3.0 0.00 0.00 0.00 56 1012.1
20260506003511 66 68 2.0 6.0 0.00 0.00 0.00 56 1012.2
20260506002503 66 72 2.0 6.0 0.00 0.00 0.00 55 1012.3
20260506001006 66 73 1.0 6.0 0.00 0.00 0.00 55 1012.4
20260506000515 67 69 1.0 6.0 0.00 0.00 0.00 55 1012.5
20260505233014 63 314 0.0 3.0 0.00 0.00 0.00 60 1012.9
20260505231505 62 328 1.0 3.0 0.00 0.00 0.00 61 1013.1
20260505230508 62 307 1.0 3.0 0.00 0.00 0.00 61 1013.1
20260505224004 62 326 1.0 2.0 0.00 0.00 0.00 61 1013.2
20260505223512 62 315 1.0 2.0 0.00 0.00 0.00 61 1013.2
20260505222014 60 5 1.0 5.0 0.00 0.00 0.00 61 1010.7
20260505221505 60 63 1.0 5.0 0.00 0.00 0.00 60 1009.0